Skip Page Navigation
NASA JPL Caltech
NASA Logo - Jet Propulsion Laboratory + View the NASA Portal
+ Center for Near-Earth Object Studies
JPL Home Earth Solar System Stars & Galaxies Technology
JPL Solar System Dynamics
BODIES ORBITS EPHEMERIDES TOOLS PHYSICAL DATA DISCOVERY FAQ SITE MAP
JPL Small-Body Database Browser
Search: [ help ]  
46974 (1998 SA140)
Classification: Main-belt Asteroid          SPK-ID: 2046974
Ephemeris | Orbit Diagram | Orbital Elements | Mission Design | Physical Parameters | Discovery Circumstances ]

[ show orbit diagram ]
Orbital Elements at Epoch 2459200.5 (2020-Dec-17.0) TDB
Reference: JPL 29 (heliocentric ecliptic J2000)
 Element Value Uncertainty (1-sigma)   Units 
e .1917182578143129 3.8894e-08  
a 2.589199723390294 1.3697e-08 au
q 2.092802863288606 1.0438e-07 au
i 12.12046412723901 5.1389e-06 deg
node 223.7626893155438 1.8405e-05 deg
peri 78.20266447225852 2.3608e-05 deg
M 180.3884344138915 1.6147e-05 deg
tp 2459959.739076827927
(2023-Jan-15.23907683)
7.1658e-05 TDB
period 1521.762068974435
4.17
1.2075e-05
3.306e-08
d
yr
n .2365678625717198 1.8772e-09 deg/d
Q 3.085596583491982 1.6323e-08 au
  Orbit Determination Parameters
   # obs. used (total)      864  
   data-arc span      9627 days (26.36 yr)  
   first obs. used      1994-11-05  
   last obs. used      2021-03-15  
   planetary ephem.      DE441  
   SB-pert. ephem.      SB441-N16  
   condition code      0  
   norm. resid. RMS      .51639  
   source      ORB  
   producer      Otto Matic  
   solution date      2021-Apr-13 09:54:23  

Additional Information
 Earth MOID = 1.11591 au 
 Jupiter MOID = 2.22694 au 
 T_jup = 3.363 
[ show covariance matrix ]

Ephemeris | Orbit Diagram | Orbital Elements | Mission Design | Physical Parameters | Discovery Circumstances ]

Physical Parameter Table
Parameter Symbol Value Units Sigma Reference Notes
absolute magnitude H 14.94   n/a MPCxxxxx  
diameter diameter 2.888 km 0.173 urn:nasa:pds:neowise_diameters_albedos::2.0[mainbelt] (http://adsabs.harvard.edu/abs/2011ApJ...741...68M)  
geometric albedo albedo 0.279   0.093 urn:nasa:pds:neowise_diameters_albedos::2.0[mainbelt] (http://adsabs.harvard.edu/abs/2011ApJ...741...68M)  

46974 (1998 SA140)          Discovered 1998-Sep-26 by LINEAR at Socorro
Reference: 20020921/Numbers.arcLast Updated: 2004-04-19

Alternate Designations
 1998 SA140 = 2001 FJ138 
Ephemeris | Orbit Diagram | Orbital Elements | Mission Design | Physical Parameters | Discovery Circumstances ]
ABOUT SSD CREDITS/AWARDS PRIVACY/COPYRIGHT GLOSSARY LINKS
FirstGov 2021-Jun-21 05:08 UT
(server date/time)  
NASA Home Page
Site Manager:   Ryan S. Park
Webmaster  Alan B. Chamberlin